EB2EMZ-15 Weather Reports


Display with metric or nautical units.
time (UTC)temp
F
wind
direction
speed
MPH
gust
MPH
rain 1hr
in
rain 24hr
in
rain mn
in
humidity
%
barometer
mb
20260506164016 58 276 0.0 0.0 0.00 0.00 0.00 79 993.6
20260506163513 58 158 0.0 0.0 0.00 0.00 0.00 79 993.4
20260506163014 58 162 0.0 1.0 0.00 0.00 0.00 79 993.5
20260506162512 57 223 0.0 3.0 0.00 0.00 0.00 80 993.5
20260506162016 57 166 0.0 3.0 0.00 0.00 0.00 80 993.6
20260506161513 57 158 0.0 1.0 0.00 0.00 0.00 79 993.7
20260506161017 57 158 0.0 0.0 0.00 0.00 0.00 79 993.7
20260506160513 58 158 0.0 0.0 0.00 0.00 0.00 78 993.8
20260506160013 58 338 0.0 0.0 0.00 0.00 0.00 77 993.8
20260506155512 58 337 0.0 0.0 0.00 0.00 0.00 77 993.7
20260506155016 58 158 0.0 0.0 0.00 0.00 0.00 76 993.8
20260506154512 59 162 0.0 1.0 0.00 0.00 0.00 76 993.8
20260506154016 59 158 0.0 3.0 0.00 0.00 0.00 75 993.8
20260506153513 59 166 0.0 3.0 0.00 0.00 0.00 75 993.8
20260506153015 60 158 1.0 5.0 0.00 0.00 0.00 74 993.7
20260506152513 60 159 0.0 2.0 0.00 0.00 0.00 74 993.8
20260506152015 60 158 0.0 2.0 0.00 0.00 0.00 73 993.8
20260506151513 61 158 0.0 2.0 0.00 0.00 0.00 73 993.9
20260506151016 61 163 0.0 0.0 0.00 0.00 0.00 72 993.8
20260506150512 61 158 0.0 0.0 0.00 0.00 0.00 71 993.8
20260506150013 62 158 0.0 0.0 0.00 0.00 0.00 70 993.7
20260506145512 62 112 0.0 0.0 0.00 0.00 0.00 70 993.9
20260506145016 62 112 0.0 0.0 0.00 0.00 0.00 70 993.8
20260506144512 62 112 0.0 0.0 0.00 0.00 0.00 70 993.8
20260506144014 62 112 0.0 0.0 0.00 0.00 0.00 69 993.9
20260506143512 63 112 0.0 0.0 0.00 0.00 0.00 69 993.9
20260506143017 63 112 0.0 0.0 0.00 0.00 0.00 69 993.9
20260506142512 63 112 0.0 0.0 0.00 0.00 0.00 69 994.0
20260506142016 63 112 0.0 0.0 0.00 0.00 0.00 69 994.0
20260506141512 63 112 0.0 0.0 0.00 0.00 0.00 70 994.1
20260506141015 62 135 0.0 0.0 0.00 0.00 0.00 70 994.1
20260506140512 62 135 0.0 0.0 0.00 0.00 0.00 70 994.2
20260506140013 62 135 0.0 0.0 0.00 0.00 0.00 70 994.3
20260506135512 62 135 0.0 0.0 0.00 0.00 0.00 70 994.4
20260506135016 62 135 0.0 0.0 0.00 0.00 0.00 70 994.4
20260506134512 61 135 0.0 0.0 0.00 0.00 0.00 69 994.4
20260506134016 61 135 0.0 0.0 0.00 0.00 0.00 68 994.3
20260506133512 62 135 0.0 0.0 0.00 0.00 0.00 67 994.3
20260506133015 62 42 0.0 0.0 0.00 0.00 0.00 65 994.3
20260506132512 62 124 0.0 0.0 0.00 0.00 0.00 64 994.2
20260506132015 62 338 0.0 0.0 0.00 0.00 0.00 64 994.0
20260506131512 62 338 0.0 0.0 0.00 0.00 0.00 64 994.0
20260506131016 62 338 0.0 0.0 0.00 0.00 0.00 64 993.9
20260506130512 62 338 0.0 0.0 0.00 0.00 0.00 63 993.9
20260506130012 62 338 0.0 0.0 0.00 0.00 0.00 63 993.8
20260506125512 63 338 0.0 0.0 0.00 0.00 0.00 63 993.8
20260506125015 63 338 0.0 0.0 0.00 0.00 0.00 62 993.9
20260506124512 63 338 0.0 0.0 0.00 0.00 0.00 62 993.7
20260506124015 63 338 0.0 0.0 0.00 0.00 0.00 61 993.8
20260506123512 64 322 0.0 0.0 0.00 0.00 0.00 60 993.7
20260506123016 65 180 0.0 0.0 0.00 0.00 0.00 59 993.6
20260506122512 65 84 0.0 0.0 0.00 0.00 0.00 60 993.6
20260506122018 65 125 0.0 0.0 0.00 0.00 0.00 60 993.6
20260506121511 66 112 0.0 0.0 0.00 0.00 0.00 60 993.6
20260506121015 65 0 0.0 0.0 0.00 0.00 0.00 60 993.7
20260506120512 65 158 0.0 0.0 0.00 0.00 0.00 61 993.7
20260506120012 65 158 0.0 0.0 0.00 0.00 0.00 62 993.7
20260506115512 64 158 0.0 0.0 0.00 0.00 0.00 63 993.7
20260506115016 63 158 0.0 0.0 0.00 0.00 0.00 63 993.7
20260506114513 63 108 0.0 0.0 0.00 0.00 0.00 64 993.8
20260506114015 63 0 0.0 0.0 0.00 0.00 0.00 63 993.8
20260506113512 62 0 0.0 0.0 0.00 0.00 0.00 63 993.9
20260506113016 63 87 0.0 0.0 0.00 0.00 0.00 62 994.0
20260506112512 63 124 0.0 0.0 0.00 0.00 0.00 61 993.9
20260506112015 63 31 0.0 0.0 0.00 0.00 0.00 60 993.8
20260506111512 64 158 0.0 0.0 0.00 0.00 0.00 59 993.9
20260506111015 65 342 0.0 0.0 0.00 0.00 0.00 58 993.9
20260506110513 65 104 0.0 1.0 0.00 0.00 0.00 58 993.8
20260506110012 66 176 0.0 0.0 0.00 0.00 0.00 57 993.7
20260506105514 66 0 0.0 0.0 0.00 0.00 0.00 57 993.7
20260506105016 67 135 0.0 0.0 0.00 0.00 0.00 56 993.6
20260506104512 67 338 0.0 0.0 0.00 0.00 0.00 56 993.7
20260506104015 67 353 0.0 0.0 0.00 0.00 0.00 58 993.6
20260506103511 67 0 0.0 0.0 0.00 0.00 0.00 58 993.6
20260506103014 67 158 0.0 0.0 0.00 0.00 0.00 59 993.6
20260506102512 67 338 0.0 0.0 0.00 0.00 0.00 59 993.7
20260506102014 67 0 0.0 0.0 0.00 0.00 0.00 60 993.7
20260506101511 67 135 0.0 0.0 0.00 0.00 0.00 60 993.7
20260506101015 67 135 0.0 0.0 0.00 0.00 0.00 62 993.7
20260506100513 66 135 0.0 0.0 0.00 0.00 0.00 62 993.7
20260506100011 65 135 0.0 0.0 0.00 0.00 0.00 62 993.7
20260506095511 65 112 0.0 0.0 0.00 0.00 0.00 63 993.9
20260506095014 65 112 0.0 0.0 0.00 0.00 0.00 63 993.9
20260506094511 65 104 0.0 0.0 0.00 0.00 0.00 63 993.9
20260506094015 65 90 0.0 0.0 0.00 0.00 0.00 64 993.7
20260506093511 64 90 0.0 0.0 0.00 0.00 0.00 63 993.7
20260506093015 64 90 0.0 0.0 0.00 0.00 0.00 62 993.7
20260506092511 65 90 0.0 0.0 0.00 0.00 0.00 61 993.8
20260506092016 66 90 0.0 0.0 0.00 0.00 0.00 60 993.8
20260506091512 67 135 0.0 0.0 0.00 0.00 0.00 59 993.8
20260506091015 68 90 0.0 0.0 0.00 0.00 0.00 58 993.7
20260506090512 69 90 0.0 0.0 0.00 0.00 0.00 57 993.6
20260506090011 70 90 0.0 0.0 0.00 0.00 0.00 58 993.7
20260506085511 71 90 0.0 0.0 0.00 0.00 0.00 59 993.4
20260506085014 70 68 0.0 0.0 0.00 0.00 0.00 61 993.4
20260506084511 69 68 0.0 0.0 0.00 0.00 0.00 64 993.6
20260506084015 68 68 0.0 0.0 0.00 0.00 0.00 64 993.8
20260506083512 68 68 0.0 0.0 0.00 0.00 0.00 64 993.6
20260506083015 67 68 0.0 0.0 0.00 0.00 0.00 66 993.7
20260506082511 66 68 0.0 0.0 0.00 0.00 0.00 68 993.7
20260506082021 66 68 0.0 0.0 0.00 0.00 0.00 68 993.8
20260506081511 65 68 0.0 0.0 0.00 0.00 0.00 70 993.7
20260506081015 65 45 0.0 0.0 0.00 0.00 0.00 71 993.7
20260506080512 64 45 0.0 0.0 0.00 0.00 0.00 73 993.7
20260506073511 60 22 0.0 0.0 0.00 0.00 0.00 77 993.7
20260506073014 59 22 0.0 0.0 0.00 0.00 0.00 81 993.7
20260506072511 57 68 0.0 0.0 0.00 0.00 0.00 84 993.7
20260506072013 55 68 0.0 0.0 0.00 0.00 0.00 83 993.7
20260506071511 54 68 0.0 0.0 0.00 0.00 0.00 83 993.7
20260506071014 54 68 0.0 0.0 0.00 0.00 0.00 84 993.8
20260506070512 54 68 0.0 0.0 0.00 0.00 0.00 84 993.7
20260506062512 51 112 0.0 0.0 0.00 0.00 0.00 88 993.3
20260506062015 50 112 0.0 0.0 0.00 0.00 0.00 88 993.5
20260506061511 50 112 0.0 0.0 0.00 0.00 0.00 88 993.4
20260506061015 50 112 0.0 0.0 0.00 0.00 0.00 88 993.4
20260506060512 50 112 0.0 0.0 0.00 0.00 0.00 88 993.5
20260506051015 49 112 0.0 0.0 0.00 0.00 0.00 87 993.2
20260506050512 49 112 0.0 0.0 0.00 0.00 0.00 87 993.1
20260506045013 49 112 0.0 0.0 0.00 0.00 0.00 87 993.2
20260506044511 49 112 0.0 0.0 0.00 0.00 0.00 87 993.1
20260506044015 49 112 0.0 0.0 0.00 0.00 0.00 87 993.0
20260506043511 50 112 0.0 0.0 0.00 0.00 0.00 87 993.1
20260506043014 50 112 0.0 0.0 0.00 0.00 0.00 87 993.2
20260506042511 50 112 0.0 0.0 0.00 0.00 0.00 88 993.1
20260506042014 50 112 0.0 0.0 0.00 0.00 0.00 88 993.2
20260506041511 50 112 0.0 0.0 0.00 0.00 0.00 87 993.2
20260506041015 50 112 0.0 0.0 0.00 0.00 0.00 87 993.1
20260506040511 50 112 0.0 0.0 0.00 0.00 0.00 87 993.2
20260506040012 50 112 0.0 0.0 0.00 0.00 0.00 87 993.3
20260506035512 50 112 0.0 0.0 0.00 0.00 0.00 87 993.2
20260506035014 49 112 0.0 0.0 0.00 0.00 0.00 87 993.2
20260506034511 49 112 0.0 0.0 0.00 0.00 0.00 87 993.2
20260506034015 49 112 0.0 0.0 0.00 0.00 0.00 87 993.2
20260506033511 49 112 0.0 0.0 0.00 0.00 0.00 87 993.3
20260506033014 49 112 0.0 0.0 0.00 0.00 0.00 87 993.3
20260506032511 49 112 0.0 0.0 0.00 0.00 0.00 87 993.3
20260506032015 49 112 0.0 0.0 0.00 0.00 0.00 87 993.3
20260506031511 49 112 0.0 0.0 0.00 0.00 0.00 87 993.3
20260506031015 50 112 0.0 0.0 0.00 0.00 0.00 87 993.2
20260506030511 50 112 0.0 0.0 0.00 0.00 0.00 87 993.2
20260506030011 50 112 0.0 0.0 0.00 0.00 0.00 87 993.3
20260506025511 50 112 0.0 0.0 0.00 0.00 0.00 87 993.2
20260506025014 50 112 0.0 0.0 0.00 0.00 0.00 86 993.2
20260506024511 50 112 0.0 0.0 0.00 0.00 0.00 86 993.3
20260506024015 50 112 0.0 0.0 0.00 0.00 0.00 86 993.2
20260506023511 50 112 0.0 0.0 0.00 0.00 0.00 86 993.0
20260506023015 51 112 0.0 0.0 0.00 0.00 0.00 86 993.5
20260506022511 51 112 0.0 0.0 0.00 0.00 0.00 86 993.5
20260506022015 51 112 0.0 0.0 0.00 0.00 0.00 86 993.4
20260506021511 51 112 0.0 0.0 0.00 0.00 0.00 86 993.5
20260506021013 51 112 0.0 0.0 0.00 0.00 0.00 86 993.4
20260506020512 51 112 0.0 0.0 0.00 0.00 0.00 86 993.6
20260506020011 51 112 0.0 0.0 0.00 0.00 0.00 86 993.4
20260506015511 51 112 0.0 0.0 0.00 0.00 0.00 86 993.6
20260506015013 51 112 0.0 0.0 0.00 0.00 0.00 86 993.7
20260506014511 51 112 0.0 0.0 0.00 0.00 0.00 86 993.7
20260506014015 51 112 0.0 0.0 0.00 0.00 0.00 86 993.6
20260506013511 51 112 0.0 0.0 0.00 0.00 0.00 86 993.6
20260506013014 51 112 0.0 0.0 0.00 0.00 0.00 86 993.6
20260506012510 51 112 0.0 0.0 0.00 0.00 0.00 86 993.6
20260506012014 51 112 0.0 0.0 0.00 0.00 0.00 86 993.6
20260506011510 51 112 0.0 0.0 0.00 0.00 0.00 86 993.5
20260506011015 51 112 0.0 0.0 0.00 0.00 0.00 86 993.7
20260506010511 51 112 0.0 0.0 0.00 0.00 0.00 86 993.6
20260506010011 51 90 0.0 0.0 0.00 0.00 0.00 86 993.8
20260506005511 51 90 0.0 0.0 0.00 0.00 0.00 86 993.7
20260506005014 51 90 0.0 0.0 0.00 0.00 0.00 86 993.8
20260506004511 51 90 0.0 0.0 0.00 0.00 0.00 86 993.8
20260506004014 51 90 0.0 0.0 0.00 0.00 0.00 86 994.0
20260506003511 51 90 0.0 0.0 0.00 0.00 0.00 86 994.0
20260506003014 51 90 0.0 0.0 0.00 0.00 0.00 86 994.0
20260506002511 51 90 0.0 0.0 0.00 0.00 0.00 86 994.1
20260506002013 51 90 0.0 0.0 0.00 0.00 0.00 86 994.1
20260506001510 51 90 0.0 0.0 0.00 0.00 0.00 86 994.0
20260506001013 51 90 0.0 0.0 0.00 0.00 0.00 86 994.1
20260506000511 51 90 0.0 0.0 0.00 0.00 0.00 86 994.0
20260506000010 51 90 0.0 0.0 0.00 0.00 0.00 86 994.0
20260505235510 51 90 0.0 0.0 0.00 0.00 0.00 86 993.9
20260505235013 51 90 0.0 0.0 0.00 0.00 0.00 86 994.1
20260505234511 51 90 0.0 0.0 0.00 0.00 0.00 86 994.0
20260505234013 51 90 0.0 0.0 0.00 0.00 0.00 86 994.0
20260505233510 51 90 0.0 0.0 0.00 0.00 0.00 86 994.1
20260505233013 51 90 0.0 0.0 0.00 0.00 0.00 86 994.1
20260505232510 51 90 0.0 0.0 0.00 0.00 0.00 86 994.0
20260505232013 51 90 0.0 0.0 0.00 0.00 0.00 86 994.1
20260505231511 51 90 0.0 0.0 0.00 0.00 0.00 86 994.1
20260505231013 51 90 0.0 0.0 0.00 0.00 0.00 86 994.0
20260505230510 51 90 0.0 0.0 0.00 0.00 0.00 86 994.1
20260505225511 51 90 0.0 0.0 0.00 0.00 0.00 86 994.2
20260505225014 51 90 0.0 0.0 0.00 0.00 0.00 86 994.0
20260505224510 51 90 0.0 0.0 0.00 0.00 0.00 86 994.1
20260505224014 51 90 0.0 0.0 0.00 0.00 0.00 86 994.1
20260505223511 51 90 0.0 0.0 0.00 0.00 0.00 86 994.3
20260505223014 51 90 0.0 0.0 0.00 0.00 0.00 86 994.3
20260505222511 51 90 0.0 0.0 0.00 0.00 0.00 86 994.3
20260505222013 51 90 0.0 0.0 0.00 0.00 0.00 86 994.3
20260505221511 51 90 0.0 0.0 0.00 0.00 0.00 86 994.3
20260505221013 51 90 0.0 0.0 0.00 0.00 0.00 86 994.3
20260505220510 51 90 0.0 0.0 0.00 0.00 0.00 85 994.2
20260505220010 51 90 0.0 0.0 0.00 0.00 0.00 86 994.3
20260505215510 51 90 0.0 0.0 0.00 0.00 0.00 85 994.3
20260505215013 51 90 0.0 0.0 0.00 0.00 0.00 85 994.4
20260505214510 51 90 0.0 0.0 0.00 0.00 0.00 85 994.4
20260505214014 51 90 0.0 0.0 0.00 0.00 0.00 85 994.3
20260505213510 51 90 0.0 0.0 0.00 0.00 0.00 85 994.4
20260505213012 51 90 0.0 0.0 0.00 0.00 0.00 85 994.3
20260505212510 51 90 0.0 0.0 0.00 0.00 0.00 85 994.4
20260505212014 52 90 0.0 0.0 0.00 0.00 0.00 85 994.5
20260505211511 52 90 0.0 0.0 0.00 0.00 0.00 84 994.6
20260505211013 52 90 0.0 0.0 0.00 0.00 0.00 84 994.5
20260505210511 52 90 0.0 0.0 0.00 0.00 0.00 84 994.5
20260505210010 52 90 0.0 0.0 0.00 0.00 0.00 84 994.4
20260505205510 52 90 0.0 0.0 0.00 0.00 0.00 84 994.4
20260505205015 52 90 0.0 0.0 0.00 0.00 0.00 84 994.4
20260505204510 53 90 0.0 0.0 0.00 0.00 0.00 83 994.2
20260505204013 53 90 0.0 0.0 0.00 0.00 0.00 83 994.3
20260505203510 53 90 0.0 0.0 0.00 0.00 0.00 83 994.4
20260505203013 53 112 0.0 0.0 0.00 0.00 0.00 83 994.4
20260505202510 53 112 0.0 0.0 0.00 0.00 0.00 83 994.3
20260505202013 53 112 0.0 0.0 0.00 0.00 0.00 83 994.2
20260505201510 53 112 0.0 0.0 0.00 0.00 0.00 83 994.0
20260505201014 53 112 0.0 0.0 0.00 0.00 0.00 82 994.2
20260505200510 54 112 0.0 0.0 0.00 0.00 0.00 82 994.1
20260505200010 54 112 0.0 0.0 0.00 0.00 0.00 82 994.0
20260505195510 54 112 0.0 0.0 0.00 0.00 0.00 81 994.0
20260505195014 54 112 0.0 0.0 0.00 0.00 0.00 81 994.0
20260505194510 55 112 0.0 0.0 0.00 0.00 0.00 81 993.9
20260505194012 55 112 0.0 0.0 0.00 0.00 0.00 81 993.8
20260505193510 55 112 0.0 0.0 0.00 0.00 0.00 81 993.7
20260505193013 55 112 0.0 0.0 0.00 0.00 0.00 80 993.8
20260505192510 55 112 0.0 0.0 0.00 0.00 0.00 80 993.9
20260505192014 55 112 0.0 0.0 0.00 0.00 0.00 80 993.7
20260505191510 55 112 0.0 0.0 0.00 0.00 0.00 79 993.7
20260505191013 55 112 0.0 0.0 0.00 0.00 0.00 79 993.7
20260505190510 56 112 0.0 0.0 0.00 0.00 0.00 79 993.6
20260505190009 56 112 0.0 0.0 0.00 0.00 0.00 79 993.7
20260505185510 56 112 0.0 0.0 0.00 0.00 0.00 78 993.7
20260505185013 56 112 0.0 0.0 0.00 0.00 0.00 78 993.7
20260505184510 56 112 0.0 0.0 0.00 0.00 0.00 78 993.6
20260505184013 56 112 0.0 0.0 0.00 0.00 0.00 77 993.6
20260505183510 57 112 0.0 0.0 0.00 0.00 0.00 77 993.6
20260505183016 57 112 0.0 0.0 0.00 0.00 0.00 77 993.6
20260505182509 57 112 0.0 0.0 0.00 0.00 0.00 76 993.4
20260505182013 57 112 0.0 0.0 0.00 0.00 0.00 76 993.4
20260505181509 58 112 0.0 0.0 0.00 0.00 0.00 76 993.6
20260505181014 58 112 0.0 0.0 0.00 0.00 0.00 76 993.4
20260505180510 58 112 0.0 0.0 0.00 0.00 0.00 75 993.6
20260505180009 58 112 0.0 0.0 0.00 0.00 0.00 75 993.6
20260505175510 58 112 0.0 0.0 0.00 0.00 0.00 75 993.6
20260505175013 58 112 0.0 0.0 0.00 0.00 0.00 75 993.6
20260505174510 58 112 0.0 0.0 0.00 0.00 0.00 75 993.5
20260505174012 58 112 0.0 0.0 0.00 0.00 0.00 75 993.5
20260505173510 58 135 0.0 0.0 0.00 0.00 0.00 75 993.3
20260505173014 58 135 0.0 0.0 0.00 0.00 0.00 75 993.3
20260505172510 58 135 0.0 0.0 0.00 0.00 0.00 74 993.5
20260505172012 58 135 0.0 0.0 0.00 0.00 0.00 74 993.6
20260505171511 58 135 0.0 0.0 0.00 0.00 0.00 74 993.7
20260505171014 58 135 0.0 0.0 0.00 0.00 0.00 74 993.6
20260505170509 58 135 0.0 0.0 0.00 0.00 0.00 74 993.7
20260505170010 58 135 0.0 0.0 0.00 0.00 0.00 75 993.6
20260505165510 59 135 0.0 0.0 0.00 0.00 0.00 75 993.6
20260505165012 59 90 0.0 0.0 0.00 0.00 0.00 75 993.7
20260505164510 59 90 0.0 0.0 0.00 0.00 0.00 75 993.6